Weather History for Guymon, OK

Change the Weather History Date:

Thursday, January 3, 2013

  Actual Average Record
Temperature  
Mean Temperature 23 °F 34 °F  
Max Temperature 33 °F 48 °F 77 °F (2006)
Min Temperature 13 °F 21 °F 6 °F (2002)
Degree Days  
Heating Degree Days 42 31  
Month to date heating degree days 131 93  
Since 1 July heating degree days 1707 1910  
Cooling Degree Days 0 0  
Month to date cooling degree days 0 0  
Year to date cooling degree days 0 0  
Moisture  
Dew Point 13 °F    
Average Humidity 70    
Maximum Humidity 80    
Minimum Humidity 59    
Precipitation  
Precipitation 0.00 in 0.01 in 0.01 in (2005)
Month to date precipitation T 0.02  
Year to date precipitation T 0.02  
Snow  
Snow 0.00 in - - ()
Month to date snowfall T  
Since 1 July snowfall 3.2  
Snow Depth 1.00 in    
Sea Level Pressure  
Sea Level Pressure 30.44 in    
Wind  
Wind Speed 7 mph (WSW)    
Max Wind Speed 14 mph    
Max Gust Speed 17 mph    
Visibility 10 miles    
Events      
T = Trace of Precipitation, MM = Missing Value Source: NWS Daily Summary

Daily Weather History Graph

Daily Weather History Graph

Search for Another Location

Airport:

Trip Planner

Search our weather history database for the weather conditions in past years. The results will help you decide how hot, cold, wet, or windy it might be!

Date:

Astronomy

Jan. 03, 2013 Rise Set
Actual Time 7:58 AM CST 5:42 PM CST
Civil Twilight 7:30 AM CST 6:11 PM CST
Nautical Twilight 6:57 AM CST 6:43 PM CST
Astronomical Twilight 6:26 AM CST 7:15 PM CST
Moon No Moon Rise 11:21 AM CST (1/3)
Length of Visible Light 10h 41m
Length of Day
9h 44m
Waning Gibbous, 65% of the Moon is Illuminated
Jan 3
Waning Gibbous
Jan 4
Last Quarter
Jan 11
New
Jan 18
First Quarter
Jan 26
Full

Hourly Weather History & Observations

Time (CST) Temp. Windchill Dew Point Humidity Pressure Visibility Wind Dir Wind Speed Gust Speed Precip Events Conditions
12:53 AM 19.0 °F 10.0 °F 10.9 °F 71% 30.38 in 10.0 mi WNW 6.9 mph - N/A   Clear
1:53 AM 16.0 °F - 10.0 °F 77% 30.40 in 10.0 mi Calm Calm - N/A   Clear
2:53 AM 16.0 °F 8.8 °F 9.0 °F 74% 30.42 in 10.0 mi NW 4.6 mph - N/A   Clear
3:53 AM 16.0 °F 3.6 °F 9.0 °F 74% 30.42 in 10.0 mi WNW 10.4 mph - N/A   Clear
4:53 AM 14.0 °F 6.5 °F 7.0 °F 74% 30.43 in 10.0 mi South 4.6 mph - N/A   Clear
5:53 AM 18.0 °F 6.1 °F 10.0 °F 71% 30.45 in 10.0 mi WNW 10.4 mph - N/A   Clear
6:53 AM 18.0 °F 6.1 °F 9.0 °F 68% 30.46 in 10.0 mi NW 10.4 mph - N/A   Clear
7:53 AM 17.1 °F 6.6 °F 9.0 °F 71% 30.48 in 10.0 mi WNW 8.1 mph - N/A   Clear
8:53 AM 17.1 °F 5.8 °F 9.0 °F 71% 30.50 in 10.0 mi WNW 9.2 mph - N/A   Clear
9:53 AM 19.9 °F 10.1 °F 12.0 °F 71% 30.51 in 10.0 mi NW 8.1 mph - N/A   Clear
10:53 AM 25.0 °F 19.3 °F 15.1 °F 66% 30.51 in 10.0 mi NW 4.6 mph - N/A   Clear
11:53 AM 28.9 °F - 18.0 °F 64% 30.48 in 10.0 mi Calm Calm - N/A   Clear
12:53 PM 28.9 °F 23.9 °F 19.0 °F 67% 30.46 in 10.0 mi SW 4.6 mph - N/A   Clear
1:53 PM 32.0 °F 28.7 °F 19.0 °F 59% 30.43 in 10.0 mi West 3.5 mph - N/A   Clear
2:53 PM 32.0 °F 24.8 °F 19.0 °F 59% 30.42 in 10.0 mi SW 8.1 mph - N/A   Clear
3:53 PM 32.0 °F 23.0 °F 19.9 °F 61% 30.41 in 10.0 mi South 11.5 mph - N/A   Clear
4:53 PM 30.9 °F 24.3 °F 19.9 °F 64% 30.41 in 10.0 mi South 6.9 mph - N/A   Clear
5:53 PM 26.1 °F 18.4 °F 17.1 °F 69% 30.41 in 10.0 mi South 6.9 mph - N/A   Clear
6:53 PM 25.0 °F 17.1 °F 17.1 °F 72% 30.41 in 10.0 mi SSW 6.9 mph - N/A   Clear
7:53 PM 21.0 °F 11.4 °F 15.1 °F 78% 30.42 in 10.0 mi SSW 8.1 mph - N/A   Clear
8:53 PM 19.0 °F 12.3 °F 12.9 °F 77% 30.42 in 10.0 mi SW 4.6 mph - N/A   Clear
9:53 PM 18.0 °F 9.8 °F 12.0 °F 78% 30.42 in 10.0 mi WSW 5.8 mph - N/A   Clear
10:53 PM 17.1 °F 11.7 °F 10.9 °F 77% 30.42 in 10.0 mi WSW 3.5 mph - N/A   Clear
11:53 PM 19.0 °F 6.8 °F 12.0 °F 74% 30.40 in 10.0 mi SW 11.5 mph - N/A   Clear